Home   Weather   Marigot   Past weeks

Past Weather in Marigot, Saint Martin — Yesterday and Last 2 Weeks

82 °F

Passing clouds.

Feels Like: 91 °F
Forecast: 80 / 87 °F
Wind: 6 mph from East

Location: Juliana Airport - Saint Maarten

Current Time: Oct 28, 2016 at 12:24:31 AM

Latest Report: Oct 28, 2016 at 12:00 AM

Visibility: N/A

Pressure: 29.86 "Hg

Humidity: 84%

Dew Point: 77 °F

Location of MarigotLocation

Past Weather in Marigot — Graph


Marigot Temperature Yesterday

Maximum temperature yesterday: 86 °F (at 10:00 AM)
Minimum temperature yesterday: 77 °F (at 4:00 AM)
Average temperature yesterday: 83 °F

High & Low Weather Summary for the Past Weeks

High90 °F (Oct 15, 1:00 PM)100% (Oct 26, 12:00 PM)30.01 "Hg (Oct 26, 12:00 PM)
Low77 °F (Oct 25, 2:00 AM)49% (Oct 15, 1:00 PM)29.77 "Hg (Oct 25, 3:00 PM)
Average84 °F78%29.89 "Hg
* Reported Oct 13 9:00 AM — Oct 27 11:00 PM, Marigot, Weather by CustomWeather, © 2016

Note: Actual official high and low records may vary slightly from our data, if they occured in-between our weather recording intervals... More about our weather records


Marigot Weather History for the Previous 24 Hours

Scroll right to see more
Time TempWeatherWind HumidityBarometerVisibility
11:00 PM
Thu, Oct 27
82 °FPassing clouds.7 mph89%29.86 "HgN/A
10:00 PM82 °FPassing clouds.6 mph89%29.89 "HgN/A
9:00 PM82 °FPassing clouds.7 mph89%29.89 "HgN/A
8:00 PM82 °FPassing clouds.7 mph89%29.86 "HgN/A
7:00 PM82 °FPassing clouds.7 mph89%29.83 "HgN/A
6:00 PM82 °FRain showers. Passing clouds.10 mph89%29.83 "Hg4 mi
5:00 PM84 °FScattered showers. Scattered clouds.8 mph79%29.83 "HgN/A
3:00 PM86 °FScattered clouds.8 mph79%29.80 "HgN/A
2:00 PM86 °FSprinkles. Partly sunny.9 mph79%29.83 "HgN/A
1:00 PM86 °FSprinkles. Partly sunny.8 mph79%29.83 "HgN/A
12:00 PM86 °FScattered clouds.9 mph79%29.86 "HgN/A
11:00 AM84 °FScattered clouds.8 mph89%29.89 "HgN/A
10:00 AM86 °FScattered showers. Partly sunny.7 mph79%29.89 "HgN/A
9:00 AM84 °FPassing clouds.6 mph84%29.86 "HgN/A
8:00 AM82 °FScattered clouds.7 mph94%29.86 "HgN/A
7:00 AM82 °FScattered showers. Scattered clouds.9 mph89%29.83 "HgN/A
6:00 AM81 °FScattered showers. Partly cloudy.3 mph100%29.83 "HgN/A
5:00 AM79 °FPartly cloudy.1 mph100%29.80 "HgN/A
4:00 AM77 °FSprinkles. Partly cloudy.13 mph100%29.80 "HgN/A
3:00 AM81 °FPassing clouds.2 mph94%29.80 "HgN/A
2:00 AM81 °FPassing clouds.2 mph94%29.80 "HgN/A
12:00 AM82 °FPassing clouds.3 mph89%29.83 "HgN/A
Weather by CustomWeather, © 2016

See weather overviewHow to use our weather pages